Miscellaneous Local Product
Issued by NWS North Platte, NE

Home | Current Version | Previous Version | Text Only | Print | Product List | Glossary On
Versions: 1 2 3 4 5 6 7 8 9 10 11 12 13 14 15 16 17 18 19 20 21 22 23 24 25 26 27 28 29 30 31 32 33 34 35 36 37 38 39 40 41 42 43 44 45 46 47 48 49 50
149
AXUS43 KLBF 281010
MISLBF


WESTERN AND NORTH CENTRAL NEBRASKA HOURLY WEATHER ROUNDUP
NATIONAL WEATHER SERVICE NORTH PLATTE NE
500 AM CDT SUN MAY 28 2017

NOTE: "FAIR" INDICATES FEW OR NO CLOUDS BELOW 12,000 FEET WITH NO
SIGNIFICANT WEATHER AND/OR OBSTRUCTIONS TO VISIBILITY.

NOTE: STATIONS NOT REPORTING VARIABLES SUCH AS SKY/WEATHER OR
PRESSURE ARE PROVIDED BY RAWS AND APRS NETWORKS AND ARE NOT UNDER
NATIONAL WEATHER SERVICE QUALITY CONTROL.

...OBSERVATIONS IN AND NEAR THE EASTERN PANHANDLE OF NEBRASKA...

CITY           SKY/WX    TMP DP  RH WIND       PRES   REMARKS
PINE RIDGE     CLEAR     46  42  86 SW6       30.06F
GORDON         FAIR      47  40  77 W10       30.05F
CHADRON        CLEAR     46  41  82 SW8       30.09F
ALLIANCE       CLEAR     39  37  92 W6        30.10S WCI  35
SIDNEY         PTCLDY    44  38  79 W13       30.15S
CRESCENT LAKE    N/A     46  40  79 W9          N/A
$$

...OBSERVATIONS IN NORTHERN NEBRASKA AND FAR SOUTHERN SOUTH DAKOTA...

CITY           SKY/WX    TMP DP  RH WIND       PRES   REMARKS
WINNER         FAIR      52  44  74 W10       29.92F
VALENTINE      CLEAR     49  43  80 NW8       29.98F
THEDFORD       CLEAR     48  45  87 W10       30.03R
AINSWORTH      CLEAR     50  46  84 W7        29.97F
O`NEILL        CLEAR     52  45  77 W8        29.93S
ORD            CLEAR     48  43  82 NW6       29.95S
BROKEN BOW     CLEAR     53  44  71 W6        29.98F
VALENTINE NWR    N/A     50  43  77 NW6         N/A
HALSEY           N/A     51  44  77 W6          N/A
BUTTE            N/A     50  44  79 W3          N/A
CHAMBERS         N/A     52  46  79 CALM        N/A
EWING            N/A     52  47  84 W6          N/A
$$

...OBSERVATIONS IN SOUTHWEST NEBRASKA AND FAR NORTHEAST COLORADO...

CITY           SKY/WX    TMP DP  RH WIND       PRES   REMARKS
WRAY           FAIR      46  43  87 W12       30.14S
IMPERIAL       CLEAR     48  41  76 W13       30.08F
OGALLALA       CLEAR     46  43  88 SW7       30.08S
NORTH PLATTE   CLEAR     43  41  93 NW9       30.04S
MCCOOK         CLEAR     50  46  86 W10       30.05F
LEXINGTON      CLEAR     47  45  90 W6        30.02S
STAPLETON        N/A     46  43  88 CALM        N/A
GOTHENBURG       N/A     49  43  79 W3          N/A
CALLAWAY         N/A     51  45  80 NW12        N/A
$$

...OBSERVATIONS IN CENTRAL LINCOLN COUNTY AREA...

CITY           SKY/WX    TMP DP  RH WIND       PRES   REMARKS
N.P. AIRPORT   CLEAR     43  41  93 NW9       30.04S
N.P. DOWNTOWN    N/A     48  45  88 CALM        N/A
N.P. SOUTHEAST   N/A     47  43  86 CALM        N/A
N.P. HILLCREST   N/A     46  44  91 W3          N/A
$$

...SOME OBSERVATIONS FROM AROUND THE REGION...

CITY           SKY/WX    TMP DP  RH WIND       PRES   REMARKS
DENVER         CLEAR     43  37  79 SW12      30.24F
LIMON          CLEAR     39  37  92 W8        30.23F WCI  33
ASPEN          CLOUDY    33  28  81 SW8       30.36F WCI  26
LARAMIE        PTCLDY    29  26  89 SE6       30.30F WCI  23
CASPER         CLOUDY    42  36  79 W8        30.23S
CHEYENNE       CLEAR     41  32  70 W12       30.24F
SCOTTSBLUFF    CLEAR     44  39  82 NW7       30.15F
GRAND ISLAND   CLEAR     53  50  89 W10       29.96F
OMAHA          PTCLDY    53  48  83 SE6       29.88F
SIOUX FALLS    CLEAR     54  48  80 W9        29.84S
PIERRE         MOCLDY    56  44  64 NW15G23   29.88F
RAPID CITY     PTCLDY    56  38  50 W12       30.02R
BISMARCK       CLEAR     47  42  83 W8        29.88R
KANSAS CITY    PTCLDY    58  57  97 NW8       29.86F
HILL CITY      CLEAR     51  49  92 W6        30.04F
WICHITA        PTCLDY    61  57  87 N13       29.93R
DODGE CITY     CLEAR     50  47  89 NW10      30.04F
OKLAHOMA CITY  CLOUDY    65  61  87 N13       29.91R
DALLAS         TSTM      75  67  76 E10       29.81R
AMARILLO       CLEAR     52  47  83 NW12      30.13R
$$




USA.gov is the U.S. government's official web portal to all federal, state and local government web resources and services.